Location: Gwatt
(46.7204°N, 7.6223°E)
Time: 01:59:58
(UTC+00:00)

Nadezhda 4 Rocket - Pass Details

Date: 18 September 2020
Orbit: 949 x 992 km, 82.9° (Epoch: 29 October)

Event Time Altitude Azimuth Distance (km) Brightness Sun altitude
Rises 18:50:42 0° 354° (N) 3,640 7.3 -13.7°
Reaches altitude 10° 18:53:17 10° 359° (N) 2,687 6.5 -14.1°
Maximum altitude 18:59:17 55° 77° (ENE) 1,137 4.1 -15.1°
Enters shadow 19:04:42 13° 153° (SSE) 2,470 5.7 -15.9°
